Location: ČR
(50.0000°N, 15.0000°E)
Time: 13:57:22
(UTC+00:00)

Explorer 7 - Pass Details

Date: 29 October 2021
Orbit: 483 x 675 km, 50.3° (Epoch: 27 November)

Event Time Altitude Azimuth Distance (km) Brightness Sun altitude
Rises 22:52:08 0° 285° (WNW) 2,740 - -53.7°
Reaches altitude 10° 22:54:21 10° 280° (W) 1,875 - -53.7°
Maximum altitude 22:58:32 54° 204° (SSW) 730 - -53.6°
Drops below altitude 10° 23:02:59 10° 127° (SE) 1,988 - -53.6°
Sets 23:05:24 0° 123° (ESE) 2,923 - -53.5°
